Regional Weather Roundup
Issued by NWS

Home | Current Version | Previous Version | Graphics & Text | Print | Product List | Glossary On
Versions: 1 2 3 4 5 6 7 8 9 10 11 12 13 14 15 16 17 18 19 20 21 22 23 24 25 26 27 28 29 30 31 32 33 34 35 36 37 38 39 40 41 42 43 44 45 46 47 48 49 50
000
ASUS43 KMKX 260011
RWRWI

WISCONSIN REGIONAL WEATHER ROUNDUP
NATIONAL WEATHER SERVICE MILWAUKEE/SULLIVAN WI
700 PM CDT SAT OCT 25 2014

NOTE: "FAIR" INDICATES FEW OR NO CLOUDS BELOW 12,000 FEET WITH NO
SIGNIFICANT WEATHER AND/OR OBSTRUCTIONS TO VISIBILITY.

WIZ001-002-006>008-014>016-023>028-260100-
NORTHWEST WISCONSIN

CITY           SKY/WX    TMP DP  RH WIND       PRES   REMARKS
SUPERIOR ARPT  CLEAR     54  26  34 W9G18     29.97R
6HR MIN TEMP:  53; 6HR MAX TEMP:  61;

ASHLAND        CLEAR     51  27  39 W9        29.94R
6HR MIN TEMP:  51; 6HR MAX TEMP:  61;

HAYWARD        CLEAR     54  22  28 W5        29.97R
6HR MIN TEMP:  54; 6HR MAX TEMP:  62;

SIREN          CLEAR     52  22  31 W7        30.01R
6HR MIN TEMP:  52; 6HR MAX TEMP:  62;

CUMBERLAND     CLEAR     50  23  34 W9        29.99R
RICE LAKE      CLEAR     52  23  32 W8        30.00R
6HR MIN TEMP:  52; 6HR MAX TEMP:  61;

CHETEK         CLEAR     55  24  30 W7        29.98R
6HR MIN TEMP:  55; 6HR MAX TEMP:  62;

LADYSMITH      CLEAR     53  22  29 NW9       29.97R
6HR MIN TEMP:  53; 6HR MAX TEMP:  61;

EAU CLAIRE     CLEAR     55  26  32 W12       29.98R
6HR MIN TEMP:  55; 6HR MAX TEMP:  63;

MENOMONIE      CLEAR     55  25  31 W10       30.00R
6HR MIN TEMP:  55; 6HR MAX TEMP:  63;

NEW RICHMOND   CLEAR     49  27  42 W8        30.02S
6HR MIN TEMP:  49; 6HR MAX TEMP:  63;

OSCEOLA        CLEAR     54  25  33 W8        30.05R
6HR MIN TEMP:  54; 6HR MAX TEMP:  63;

$$

WIZ003>005-009-010-017-018-260100-
NORTH CENTRAL WISCONSIN

CITY           SKY/WX    TMP DP  RH WIND       PRES   REMARKS
MANITOWISH WTR CLEAR     50  24  35 NW13G18   29.90R
6HR MIN TEMP:  50; 6HR MAX TEMP:  58;

ARBOR VITAE    CLEAR     53  22  29 NW14G21   29.90R
6HR MIN TEMP:  53; 6HR MAX TEMP:  59;

WOODRUFF       CLEAR     53  22  29 NW14G21   29.90R
6HR MIN TEMP:  53; 6HR MAX TEMP:  59;

RHINELANDER    CLEAR     51  21  30 W10       29.90R
6HR MIN TEMP:  51; 6HR MAX TEMP:  59;

EAGLE RIVER    CLEAR     51  19  28 NW15G21   29.88R
6HR MIN TEMP:  51; 6HR MAX TEMP:  59;

LAND O LAKES   FAIR      52  22  31 NW15G23   29.87R
6HR MIN TEMP:  52; 6HR MAX TEMP:  58;

PHILLIPS       CLEAR     51  23  32 W5        29.93R
6HR MIN TEMP:  51; 6HR MAX TEMP:  59;

TOMAHAWK       CLEAR     51  20  29 W9        29.91S
6HR MIN TEMP:  51; 6HR MAX TEMP:  59;

MEDFORD        CLEAR     51  27  39 W9        29.93S
6HR MIN TEMP:  51; 6HR MAX TEMP:  58;

MERRILL        CLEAR     53  24  32 W7        29.91R
6HR MIN TEMP:  53; 6HR MAX TEMP:  61;

$$

WIZ029-030-035-036-043>047-260100-
CENTRAL WISCONSIN

CITY           SKY/WX    TMP DP  RH WIND       PRES   REMARKS
WAUSAU         CLEAR     52  26  36 W10       29.90R
6HR MIN TEMP:  52; 6HR MAX TEMP:  61;

MOSINEE        CLEAR     54  27  35 W14       29.92R
MARSHFIELD     CLEAR     51  29  42 W9        29.94R
6HR MIN TEMP:  51; 6HR MAX TEMP:  62;

STEVENS POINT  CLEAR     54  28  36 W7        29.93R
6HR MIN TEMP:  54; 6HR MAX TEMP:  60;

WAUPACA        CLEAR     57  26  29 W10G16    29.91S
6HR MIN TEMP:  57; 6HR MAX TEMP:  66;

WAUTOMA        CLOUDY    55  28  35 W7        29.94R
6HR MIN TEMP:  55; 6HR MAX TEMP:  66;

WISC RAPIDS    CLEAR     55  27  34 W9        29.95R
6HR MIN TEMP:  55; 6HR MAX TEMP:  64;

CAMP DOUGLAS   NOT AVBL
$$

WIZ011>013-019>022-031-037>040-048>050-260100-
NORTHEAST WISCONSIN

CITY           SKY/WX    TMP DP  RH WIND       PRES   REMARKS
ANTIGO         CLEAR     51  25  37 NW14      29.89R
6HR MIN TEMP:  50; 6HR MAX TEMP:  59;

SHAWANO        CLEAR     58  25  29 W7        29.88R
6HR MIN TEMP:  58; 6HR MAX TEMP:  66;

OCONTO         CLEAR     55  27  33 W8        29.84R
6HR MIN TEMP:  55; 6HR MAX TEMP:  65;

STURGEON BAY   CLEAR     57  27  30 NW15      29.83R
6HR MIN TEMP:  57; 6HR MAX TEMP:  63;

GREEN BAY      CLEAR     56  30  37 W10       29.86R
6HR MIN TEMP:  55; 6HR MAX TEMP:  66;

MANITOWOC      CLEAR     58  31  35 W15       29.86R
6HR MIN TEMP:  57; 6HR MAX TEMP:  65;

APPLETON       CLEAR     55  27  33 W14       29.90R
CLINTONVILLE   CLEAR     54  27  35 W7        29.88S
OSHKOSH        CLEAR     54  32  43 W7        29.90R
6HR MIN TEMP:  54; 6HR MAX TEMP:  64;

$$

WIZ032>034-041-042-053>061-260100-
SOUTHWEST WISCONSIN

CITY           SKY/WX    TMP DP  RH WIND       PRES   REMARKS
LA CROSSE      CLEAR     56  31  38 W9        30.00R
6HR MIN TEMP:  56; 6HR MAX TEMP:  68;

SPARTA         CLEAR     56  24  29 W7        29.99S
6HR MIN TEMP:  56; 6HR MAX TEMP:  65;

VIROQUA        CLEAR     53  27  36 NW8       30.00S
6HR MIN TEMP:  53; 6HR MAX TEMP:  64;

BOSCOBEL       CLEAR     61  25  25 NW5       30.00R
6HR MIN TEMP:  61; 6HR MAX TEMP:  70;

PRAIRIE DU CHI CLEAR     58  27  31 W8        30.01R
6HR MIN TEMP:  58; 6HR MAX TEMP:  69;

PLATTEVILLE    CLEAR     56  30  36 W6        30.01R
6HR MIN TEMP:  56; 6HR MAX TEMP:  68;

$$

WIZ056-057-062-063-064-067-068-260100-
SOUTH CENTRAL WISCONSIN

CITY           SKY/WX    TMP DP  RH WIND       PRES   REMARKS
REEDSBURG      CLEAR     56  28  35 W3        29.97R
6HR MIN TEMP:  55; 6HR MAX TEMP:  65;

BARABOO/DELLS  CLEAR     55  25  31 W8        29.97R
6HR MIN TEMP:  55; 6HR MAX TEMP:  66;

LONE ROCK      CLEAR     62  27  26 W9        29.98R
6HR MIN TEMP:  61; 6HR MAX TEMP:  72;

MINERAL POINT  CLEAR     55  27  33 W9        29.99R
MADISON        CLEAR     58  27  30 W3        29.96R
6HR MIN TEMP:  58; 6HR MAX TEMP:  69;

MIDDLETON      CLEAR     57  23  27 W9        29.97R
6HR MIN TEMP:  55; 6HR MAX TEMP:  69;

WATERTOWN      CLEAR     56  29  35 W6        29.93R
6HR MIN TEMP:  56; 6HR MAX TEMP:  67;

MONROE         CLEAR     59  28  31 W12       29.97R
JANESVILLE     CLEAR     55  28  35 NW7       29.95R
$$

WIZ051-052-058>065-066-070>072-260100-
SOUTHEAST WISCONSIN

CITY           SKY/WX    TMP DP  RH WIND       PRES   REMARKS
MILWAUKEE      CLEAR     62  24  23 NW13      29.91R
6HR MIN TEMP:  62; 6HR MAX TEMP:  69;

WAUKESHA       NOT AVBL
MILWAUKEE/TIMM CLEAR     61  21  21 W12       29.91R
RACINE         CLEAR     60  28  29 W6        29.93R
6HR MIN TEMP:  60; 6HR MAX TEMP:  69;

BURLINGTON     CLEAR     53  28  37 NW8       29.94R
6HR MIN TEMP:  53; 6HR MAX TEMP:  68;

KENOSHA        CLEAR     60  28  29 W10       29.92R
6HR MIN TEMP:  60; 6HR MAX TEMP:  70;

FOND DU LAC    CLEAR     54  29  38 W9        29.91R
6HR MIN TEMP:  54; 6HR MAX TEMP:  65;

SHEBOYGAN      CLEAR     58  27  30 W15G26    29.88R
6HR MIN TEMP:  57; 6HR MAX TEMP:  65;

WEST BEND      CLEAR     57  23  26 W14       29.91R
JUNEAU         CLEAR     56  28  33 W7        29.94R
6HR MIN TEMP:  56; 6HR MAX TEMP:  66;

$$

LSZ147-162-260100-
LAKE SUPERIOR

STATION/POSITION TIME  TEMP    WIND        PRES    WAVE
                       AIR SEA DIR/SP/G            HT/PER
                 (UTC) (F)     (DEG/KT/KT) (MB)    (FT/S)
W MID LAKE BUOY  2350   50 46  270/ 16/ 19 1010.6R   4/ 6
DEVILS ISLAND    0000   53     280/ 20/ 24 1012.8R
PORT WING        2300   54     270/ 15/ 23 1013.9
SAXON HARBOR     2300   58     280/  8/ 16 1012.5R
$$

LMZ867-665-643>646-260100-
LAKE MICHIGAN

STATION/POSITION TIME  TEMP    WIND        PRES    WAVE



USA.gov is the U.S. government's official web portal to all federal, state and local government web resources and services.